owner,sensor,date,latitude,longitude,vertical_datum,sea_water_practical_salinity,qcFlag 
DISL,ioos:station:DISL:MHPA:1,2014-02-01T00:00:00Z,30.6671,-87.9365,0.9835896,0.15,1111122 
DISL,ioos:station:DISL:MHPA:1,2014-02-01T00:30:00Z,30.6671,-87.9365,1.0244328,0.16,1111122 
DISL,ioos:station:DISL:MHPA:1,2014-02-01T01:00:00Z,30.6671,-87.9365,1.057656,0.15,1111122 
DISL,ioos:station:DISL:MHPA:1,2014-02-01T01:30:00Z,30.6671,-87.9365,1.0686288,0.15,1111122 
DISL,ioos:station:DISL:MHPA:1,2014-02-01T02:00:00Z,30.6671,-87.9365,1.1058145,0.16,1111122 
DISL,ioos:station:DISL:MHPA:1,2014-02-01T02:30:00Z,30.6671,-87.9365,1.1268456,0.15,1111122 
DISL,ioos:station:DISL:MHPA:1,2014-02-01T03:00:00Z,30.6671,-87.9365,1.1682984,0.16,1111122 
DISL,ioos:station:DISL:MHPA:1,2014-02-01T03:30:00Z,30.6671,-87.9365,1.193292,0.16,1111122 
DISL,ioos:station:DISL:MHPA:1,2014-02-01T04:00:00Z,30.6671,-87.9365,1.2106656,0.16,1111122 
DISL,ioos:station:DISL:MHPA:1,2014-02-01T04:30:00Z,30.6671,-87.9365,1.2188952,0.17,1111122 
DISL,ioos:station:DISL:MHPA:1,2014-02-01T05:00:00Z,30.6671,-87.9365,1.2195048,0.17,1111122 
DISL,ioos:station:DISL:MHPA:1,2014-02-01T05:30:00Z,30.6671,-87.9365,1.2597383,0.16,1111122 
DISL,ioos:station:DISL:MHPA:1,2014-02-01T06:00:00Z,30.6671,-87.9365,1.2597383,0.16,1111122 
DISL,ioos:station:DISL:MHPA:1,2014-02-01T06:30:00Z,30.6671,-87.9365,1.2618719,0.16,1111122 
DISL,ioos:station:DISL:MHPA:1,2014-02-01T07:00:00Z,30.6671,-87.9365,1.2448032,0.17,1111122 
DISL,ioos:station:DISL:MHPA:1,2014-02-01T07:30:00Z,30.6671,-87.9365,1.2365737,0.17,1111122 
DISL,ioos:station:DISL:MHPA:1,2014-02-01T08:00:00Z,30.6671,-87.9365,1.200912,0.18,1111122 
DISL,ioos:station:DISL:MHPA:1,2014-02-01T08:30:00Z,30.6671,-87.9365,1.1722608,0.18,1111122 
DISL,ioos:station:DISL:MHPA:1,2014-02-01T09:00:00Z,30.6671,-87.9365,1.126236,0.18,1111122 
DISL,ioos:station:DISL:MHPA:1,2014-02-01T09:30:00Z,30.6671,-87.9365,1.095756,0.19,1111122 
DISL,ioos:station:DISL:MHPA:1,2014-02-01T10:00:00Z,30.6671,-87.9365,1.0564369,0.2,1111122 
DISL,ioos:station:DISL:MHPA:1,2014-02-01T10:30:00Z,30.6671,-87.9365,1.0186416,0.21,1111122 
DISL,ioos:station:DISL:MHPA:1,2014-02-01T11:00:00Z,30.6671,-87.9365,0.9756648,0.21,1111122 
DISL,ioos:station:DISL:MHPA:1,2014-02-01T11:30:00Z,30.6671,-87.9365,0.9396984,0.21,1111122 
DISL,ioos:station:DISL:MHPA:1,2014-02-01T12:00:00Z,30.6671,-87.9365,0.9107424,0.19,1111122 
DISL,ioos:station:DISL:MHPA:1,2014-02-01T12:30:00Z,30.6671,-87.9365,0.8790432,0.19,1111122 
DISL,ioos:station:DISL:MHPA:1,2014-02-01T13:00:00Z,30.6671,-87.9365,0.848868,0.19,1111122 
DISL,ioos:station:DISL:MHPA:1,2014-02-01T13:30:00Z,30.6671,-87.9365,0.82722723,0.19,1111122 
DISL,ioos:station:DISL:MHPA:1,2014-02-01T14:00:00Z,30.6671,-87.9365,0.8083296,0.19,1111122 
DISL,ioos:station:DISL:MHPA:1,2014-02-01T14:30:00Z,30.6671,-87.9365,0.7872984,0.19,1111122 
DISL,ioos:station:DISL:MHPA:1,2014-02-01T15:00:00Z,30.6671,-87.9365,0.7702296,0.19,1111122 
DISL,ioos:station:DISL:MHPA:1,2014-02-01T15:30:00Z,30.6671,-87.9365,0.7568184,0.2,1111122 
DISL,ioos:station:DISL:MHPA:1,2014-02-01T16:00:00Z,30.6671,-87.9365,0.7418832,0.2,1111122 
DISL,ioos:station:DISL:MHPA:1,2014-02-01T16:30:00Z,30.6671,-87.9365,0.74249285,0.2,1111122 
DISL,ioos:station:DISL:MHPA:1,2014-02-01T17:00:00Z,30.6671,-87.9365,0.75651366,0.2,1111122 
DISL,ioos:station:DISL:MHPA:1,2014-02-01T17:30:00Z,30.6671,-87.9365,0.7577328,0.2,1111122 
DISL,ioos:station:DISL:MHPA:1,2014-02-01T18:00:00Z,30.6671,-87.9365,0.7592568,0.2,1111122 
DISL,ioos:station:DISL:MHPA:1,2014-02-01T18:30:00Z,30.6671,-87.9365,0.780288,0.2,1111122 
DISL,ioos:station:DISL:MHPA:1,2014-02-01T19:00:00Z,30.6671,-87.9365,0.81473047,0.2,1111122 
DISL,ioos:station:DISL:MHPA:1,2014-02-01T19:30:00Z,30.6671,-87.9365,0.8531352,0.21,1111122 
DISL,ioos:station:DISL:MHPA:1,2014-02-01T20:00:00Z,30.6671,-87.9365,0.89733124,0.2,1111122 
DISL,ioos:station:DISL:MHPA:1,2014-02-01T20:30:00Z,30.6671,-87.9365,0.92842084,0.2,1111122 
DISL,ioos:station:DISL:MHPA:1,2014-02-01T21:00:00Z,30.6671,-87.9365,0.95646244,0.2,1111122 
DISL,ioos:station:DISL:MHPA:1,2014-02-01T21:30:00Z,30.6671,-87.9365,0.9589008,0.2,1111122 
DISL,ioos:station:DISL:MHPA:1,2014-02-01T22:00:00Z,30.6671,-87.9365,0.97596955,0.21,1111122 
DISL,ioos:station:DISL:MHPA:1,2014-02-01T22:30:00Z,30.6671,-87.9365,1.0009632,0.21,1111122 
DISL,ioos:station:DISL:MHPA:1,2014-02-01T23:00:00Z,30.6671,-87.9365,0.99608636,0.21,1111122 
DISL,ioos:station:DISL:MHPA:1,2014-02-01T23:30:00Z,30.6671,-87.9365,0.995172,0.22,1111122 
DISL,ioos:station:DISL:MHPA:1,2014-02-02T00:00:00Z,30.6671,-87.9365,1.0101072,0.22,1111122 
DISL,ioos:station:DISL:MHPA:1,2014-02-02T00:30:00Z,30.6671,-87.9365,0.9942576,0.21,1111122 
DISL,ioos:station:DISL:MHPA:1,2014-02-02T01:00:00Z,30.6671,-87.9365,1.0000488,0.22,1111122 
DISL,ioos:station:DISL:MHPA:1,2014-02-02T01:30:00Z,30.6671,-87.9365,1.0034016,0.22,1111122 
DISL,ioos:station:DISL:MHPA:1,2014-02-02T02:00:00Z,30.6671,-87.9365,1.0070592,0.22,1111122 
DISL,ioos:station:DISL:MHPA:1,2014-02-02T02:30:00Z,30.6671,-87.9365,1.0171176,0.22,1111122 
DISL,ioos:station:DISL:MHPA:1,2014-02-02T03:00:00Z,30.6671,-87.9365,1.0308336,0.22,1111122 
DISL,ioos:station:DISL:MHPA:1,2014-02-02T03:30:00Z,30.6671,-87.9365,1.0643617,0.22,1111122 
DISL,ioos:station:DISL:MHPA:1,2014-02-02T04:00:00Z,30.6671,-87.9365,1.1045952,0.22,1111122 
DISL,ioos:station:DISL:MHPA:1,2014-02-02T04:30:00Z,30.6671,-87.9365,1.1341608,0.22,1111122 
DISL,ioos:station:DISL:MHPA:1,2014-02-02T05:00:00Z,30.6671,-87.9365,1.1631168,0.22,1111122 
DISL,ioos:station:DISL:MHPA:1,2014-02-02T05:30:00Z,30.6671,-87.9365,1.1966449,0.22,1111122 
DISL,ioos:station:DISL:MHPA:1,2014-02-02T06:00:00Z,30.6671,-87.9365,1.205484,0.22,1111122 
DISL,ioos:station:DISL:MHPA:1,2014-02-02T06:30:00Z,30.6671,-87.9365,1.2176759,0.22,1111122 
DISL,ioos:station:DISL:MHPA:1,2014-02-02T07:00:00Z,30.6671,-87.9365,1.2167616,0.22,1111122 
DISL,ioos:station:DISL:MHPA:1,2014-02-02T07:30:00Z,30.6671,-87.9365,1.2088368,0.22,1111122 
DISL,ioos:station:DISL:MHPA:1,2014-02-02T08:00:00Z,30.6671,-87.9365,1.2173712,0.22,1111122 
DISL,ioos:station:DISL:MHPA:1,2014-02-02T08:30:00Z,30.6671,-87.9365,1.2192,0.22,1111122 
DISL,ioos:station:DISL:MHPA:1,2014-02-02T09:00:00Z,30.6671,-87.9365,1.2048744,0.22,1111122 
DISL,ioos:station:DISL:MHPA:1,2014-02-02T09:30:00Z,30.6671,-87.9365,1.1801856,0.22,1111122 
DISL,ioos:station:DISL:MHPA:1,2014-02-02T10:00:00Z,30.6671,-87.9365,1.1798809,0.22,1111122 
DISL,ioos:station:DISL:MHPA:1,2014-02-02T10:30:00Z,30.6671,-87.9365,1.141476,0.21,1111122 
DISL,ioos:station:DISL:MHPA:1,2014-02-02T11:00:00Z,30.6671,-87.9365,1.1061192,0.21,1111122 
DISL,ioos:station:DISL:MHPA:1,2014-02-02T11:30:00Z,30.6671,-87.9365,1.0594848,0.21,1111122 
DISL,ioos:station:DISL:MHPA:1,2014-02-02T12:00:00Z,30.6671,-87.9365,1.0213848,0.21,1111122 
DISL,ioos:station:DISL:MHPA:1,2014-02-02T12:30:00Z,30.6671,-87.9365,0.9841992,0.2,1111122 
DISL,ioos:station:DISL:MHPA:1,2014-02-02T13:00:00Z,30.6671,-87.9365,0.95097595,0.2,1111122 
DISL,ioos:station:DISL:MHPA:1,2014-02-02T13:30:00Z,30.6671,-87.9365,0.9244584,0.21,1111122 
DISL,ioos:station:DISL:MHPA:1,2014-02-02T14:00:00Z,30.6671,-87.9365,0.9028176,0.21,1111122 
DISL,ioos:station:DISL:MHPA:1,2014-02-02T14:30:00Z,30.6671,-87.9365,0.8875776,0.21,1111122 
DISL,ioos:station:DISL:MHPA:1,2014-02-02T15:00:00Z,30.6671,-87.9365,0.88483447,0.21,1111122 
DISL,ioos:station:DISL:MHPA:1,2014-02-02T15:30:00Z,30.6671,-87.9365,0.8775192,0.21,1111122 
DISL,ioos:station:DISL:MHPA:1,2014-02-02T16:00:00Z,30.6671,-87.9365,0.88331044,0.21,1111122 
DISL,ioos:station:DISL:MHPA:1,2014-02-02T16:30:00Z,30.6671,-87.9365,0.8921496,0.21,1111122 
DISL,ioos:station:DISL:MHPA:1,2014-02-02T17:00:00Z,30.6671,-87.9365,0.8897112,0.21,1111122 
DISL,ioos:station:DISL:MHPA:1,2014-02-02T17:30:00Z,30.6671,-87.9365,0.900684,0.21,1111122 
DISL,ioos:station:DISL:MHPA:1,2014-02-02T18:00:00Z,30.6671,-87.9365,0.9171432,0.21,1111122 
DISL,ioos:station:DISL:MHPA:1,2014-02-02T18:30:00Z,30.6671,-87.9365,0.941832,0.21,1111122 
DISL,ioos:station:DISL:MHPA:1,2014-02-02T19:00:00Z,30.6671,-87.9365,0.9796272,0.21,1111122 
DISL,ioos:station:DISL:MHPA:1,2014-02-02T19:30:00Z,30.6671,-87.9365,0.9851136,0.2,1111122 
DISL,ioos:station:DISL:MHPA:1,2014-02-02T20:00:00Z,30.6671,-87.9365,1.0177273,0.2,1111122 
DISL,ioos:station:DISL:MHPA:1,2014-02-02T20:30:00Z,30.6671,-87.9365,1.0512552,0.2,1111122 
DISL,ioos:station:DISL:MHPA:1,2014-02-02T21:00:00Z,30.6671,-87.9365,1.062228,0.2,1111122 
DISL,ioos:station:DISL:MHPA:1,2014-02-02T21:30:00Z,30.6671,-87.9365,1.0756392,0.2,1111122 
DISL,ioos:station:DISL:MHPA:1,2014-02-02T22:00:00Z,30.6671,-87.9365,1.0893552,0.2,1111122 
DISL,ioos:station:DISL:MHPA:1,2014-02-02T22:30:00Z,30.6671,-87.9365,1.0984993,0.2,1111122 
DISL,ioos:station:DISL:MHPA:1,2014-02-02T23:00:00Z,30.6671,-87.9365,1.1134344,0.2,1111122 
DISL,ioos:station:DISL:MHPA:1,2014-02-02T23:30:00Z,30.6671,-87.9365,1.12014,0.2,1111122 
DISL,ioos:station:DISL:MHPA:1,2014-02-03T00:00:00Z,30.6671,-87.9365,1.1183112,0.2,1111122 
DISL,ioos:station:DISL:MHPA:1,2014-02-03T00:30:00Z,30.6671,-87.9365,1.1158729,0.2,1111122 
DISL,ioos:station:DISL:MHPA:1,2014-02-03T01:00:00Z,30.6671,-87.9365,1.1177016,0.2,1111122 
DISL,ioos:station:DISL:MHPA:1,2014-02-03T01:30:00Z,30.6671,-87.9365,1.095756,0.2,1111122 
DISL,ioos:station:DISL:MHPA:1,2014-02-03T02:00:00Z,30.6671,-87.9365,1.1021568,0.2,1111122 
DISL,ioos:station:DISL:MHPA:1,2014-02-03T02:30:00Z,30.6671,-87.9365,1.1189208,0.2,1111122 
DISL,ioos:station:DISL:MHPA:1,2014-02-03T03:00:00Z,30.6671,-87.9365,1.114044,0.2,1111122 
DISL,ioos:station:DISL:MHPA:1,2014-02-03T03:30:00Z,30.6671,-87.9365,1.1106912,0.19,1111122 
DISL,ioos:station:DISL:MHPA:1,2014-02-03T04:00:00Z,30.6671,-87.9365,1.1091672,0.2,1111122 
DISL,ioos:station:DISL:MHPA:1,2014-02-03T04:30:00Z,30.6671,-87.9365,1.1408664,0.2,1111122 
DISL,ioos:station:DISL:MHPA:1,2014-02-03T05:00:00Z,30.6671,-87.9365,1.1667744,0.2,1111122 
DISL,ioos:station:DISL:MHPA:1,2014-02-03T05:30:00Z,30.6671,-87.9365,1.1969496,0.2,1111122 
DISL,ioos:station:DISL:MHPA:1,2014-02-03T06:00:00Z,30.6671,-87.9365,1.2134088,0.19,1111122 
DISL,ioos:station:DISL:MHPA:1,2014-02-03T06:30:00Z,30.6671,-87.9365,1.2438887,0.19,1111122 
DISL,ioos:station:DISL:MHPA:1,2014-02-03T07:00:00Z,30.6671,-87.9365,1.2487657,0.18,1111122 
DISL,ioos:station:DISL:MHPA:1,2014-02-03T07:30:00Z,30.6671,-87.9365,1.2600431,0.18,1111122 
DISL,ioos:station:DISL:MHPA:1,2014-02-03T08:00:00Z,30.6671,-87.9365,1.2612624,0.18,1111122 
DISL,ioos:station:DISL:MHPA:1,2014-02-03T08:30:00Z,30.6671,-87.9365,1.2454128,0.17,1111122 
DISL,ioos:station:DISL:MHPA:1,2014-02-03T09:00:00Z,30.6671,-87.9365,1.2335256,0.17,1111122 
DISL,ioos:station:DISL:MHPA:1,2014-02-03T09:30:00Z,30.6671,-87.9365,1.2073128,0.18,1111122 
DISL,ioos:station:DISL:MHPA:1,2014-02-03T10:00:00Z,30.6671,-87.9365,1.1817096,0.18,1111122 
DISL,ioos:station:DISL:MHPA:1,2014-02-03T10:30:00Z,30.6671,-87.9365,1.1646409,0.18,1111122 
DISL,ioos:station:DISL:MHPA:1,2014-02-03T11:00:00Z,30.6671,-87.9365,1.1484864,0.18,1111122 
DISL,ioos:station:DISL:MHPA:1,2014-02-03T11:30:00Z,30.6671,-87.9365,1.1122152,0.19,1111122 
DISL,ioos:station:DISL:MHPA:1,2014-02-03T12:00:00Z,30.6671,-87.9365,1.08204,0.19,1111122 
DISL,ioos:station:DISL:MHPA:1,2014-02-03T12:30:00Z,30.6671,-87.9365,1.0427208,0.19,1111122 
DISL,ioos:station:DISL:MHPA:1,2014-02-03T13:00:00Z,30.6671,-87.9365,1.002792,0.19,1111122 
DISL,ioos:station:DISL:MHPA:1,2014-02-03T13:30:00Z,30.6671,-87.9365,0.9595104,0.19,1111122 
DISL,ioos:station:DISL:MHPA:1,2014-02-03T14:00:00Z,30.6671,-87.9365,0.9079992,0.18,1111122 
DISL,ioos:station:DISL:MHPA:1,2014-02-03T14:30:00Z,30.6671,-87.9365,0.854964,0.18,1111122 
DISL,ioos:station:DISL:MHPA:1,2014-02-03T15:00:00Z,30.6671,-87.9365,0.81473047,0.18,1111122 
DISL,ioos:station:DISL:MHPA:1,2014-02-03T15:30:00Z,30.6671,-87.9365,0.7790688,0.18,1111122 
DISL,ioos:station:DISL:MHPA:1,2014-02-03T16:00:00Z,30.6671,-87.9365,0.7400544,0.18,1111122 
DISL,ioos:station:DISL:MHPA:1,2014-02-03T16:30:00Z,30.6671,-87.9365,0.7077456,0.18,1111122 
DISL,ioos:station:DISL:MHPA:1,2014-02-03T17:00:00Z,30.6671,-87.9365,0.6821424,0.18,1111122 
DISL,ioos:station:DISL:MHPA:1,2014-02-03T17:30:00Z,30.6671,-87.9365,0.667512,0.18,1111122 
DISL,ioos:station:DISL:MHPA:1,2014-02-03T18:00:00Z,30.6671,-87.9365,0.66842645,0.18,1111122 
DISL,ioos:station:DISL:MHPA:1,2014-02-03T18:30:00Z,30.6671,-87.9365,0.6821424,0.17,1111122 
DISL,ioos:station:DISL:MHPA:1,2014-02-03T19:00:00Z,30.6671,-87.9365,0.6858,0.17,1111122 
DISL,ioos:station:DISL:MHPA:1,2014-02-03T19:30:00Z,30.6671,-87.9365,0.675132,0.18,1111122 
DISL,ioos:station:DISL:MHPA:1,2014-02-03T20:00:00Z,30.6671,-87.9365,0.6547104,0.18,1111122 
DISL,ioos:station:DISL:MHPA:1,2014-02-03T20:30:00Z,30.6671,-87.9365,0.6336792,0.18,1111122 
DISL,ioos:station:DISL:MHPA:1,2014-02-03T21:00:00Z,30.6671,-87.9365,0.61813444,0.18,1111122 
DISL,ioos:station:DISL:MHPA:1,2014-02-03T21:30:00Z,30.6671,-87.9365,0.6092952,0.18,1111122 
DISL,ioos:station:DISL:MHPA:1,2014-02-03T22:00:00Z,30.6671,-87.9365,0.6147816,0.18,1111122 
DISL,ioos:station:DISL:MHPA:1,2014-02-03T22:30:00Z,30.6671,-87.9365,0.635508,0.18,1111122 
DISL,ioos:station:DISL:MHPA:1,2014-02-03T23:00:00Z,30.6671,-87.9365,0.6665976,0.18,1111122 
DISL,ioos:station:DISL:MHPA:1,2014-02-03T23:30:00Z,30.6671,-87.9365,0.694944,0.18,1111122 
DISL,ioos:station:DISL:MHPA:1,2014-02-04T00:00:00Z,30.6671,-87.9365,0.71353686,0.18,1111122 
DISL,ioos:station:DISL:MHPA:1,2014-02-04T00:30:00Z,30.6671,-87.9365,0.71749926,0.18,1111122 
DISL,ioos:station:DISL:MHPA:1,2014-02-04T01:00:00Z,30.6671,-87.9365,0.7226808,0.18,1111122 
DISL,ioos:station:DISL:MHPA:1,2014-02-04T01:30:00Z,30.6671,-87.9365,0.72450966,0.18,1111122 
DISL,ioos:station:DISL:MHPA:1,2014-02-04T02:00:00Z,30.6671,-87.9365,0.7123176,0.18,1111122 
DISL,ioos:station:DISL:MHPA:1,2014-02-04T02:30:00Z,30.6671,-87.9365,0.6970776,0.18,1111122 
DISL,ioos:station:DISL:MHPA:1,2014-02-04T03:00:00Z,30.6671,-87.9365,0.6867144,0.18,1111122 
DISL,ioos:station:DISL:MHPA:1,2014-02-04T03:30:00Z,30.6671,-87.9365,0.6818376,0.18,1111122 
DISL,ioos:station:DISL:MHPA:1,2014-02-04T04:00:00Z,30.6671,-87.9365,0.676656,0.18,1111122 
DISL,ioos:station:DISL:MHPA:1,2014-02-04T04:30:00Z,30.6671,-87.9365,0.6717792,0.18,1111122 
DISL,ioos:station:DISL:MHPA:1,2014-02-04T05:00:00Z,30.6671,-87.9365,0.67848486,0.18,1111122 
DISL,ioos:station:DISL:MHPA:1,2014-02-04T05:30:00Z,30.6671,-87.9365,0.6955536,0.18,1111122 
DISL,ioos:station:DISL:MHPA:1,2014-02-04T06:00:00Z,30.6671,-87.9365,0.70866,0.18,1111122 
DISL,ioos:station:DISL:MHPA:1,2014-02-04T06:30:00Z,30.6671,-87.9365,0.7196328,0.18,1111122 
DISL,ioos:station:DISL:MHPA:1,2014-02-04T07:00:00Z,30.6671,-87.9365,0.7409688,0.18,1111122 
DISL,ioos:station:DISL:MHPA:1,2014-02-04T07:30:00Z,30.6671,-87.9365,0.7729728,0.18,1111122 
DISL,ioos:station:DISL:MHPA:1,2014-02-04T08:00:00Z,30.6671,-87.9365,0.8065008,0.17,1111122 
DISL,ioos:station:DISL:MHPA:1,2014-02-04T08:30:00Z,30.6671,-87.9365,0.84216243,0.17,1111122 
DISL,ioos:station:DISL:MHPA:1,2014-02-04T09:00:00Z,30.6671,-87.9365,0.8577072,0.17,1111122 
DISL,ioos:station:DISL:MHPA:1,2014-02-04T09:30:00Z,30.6671,-87.9365,0.89123523,0.17,1111122 
DISL,ioos:station:DISL:MHPA:1,2014-02-04T10:00:00Z,30.6671,-87.9365,0.920496,0.17,1111122 
DISL,ioos:station:DISL:MHPA:1,2014-02-04T10:30:00Z,30.6671,-87.9365,0.926592,0.17,1111122 
DISL,ioos:station:DISL:MHPA:1,2014-02-04T11:00:00Z,30.6671,-87.9365,0.932688,0.17,1111122 
DISL,ioos:station:DISL:MHPA:1,2014-02-04T11:30:00Z,30.6671,-87.9365,0.97901756,0.17,1111122 
DISL,ioos:station:DISL:MHPA:1,2014-02-04T12:00:00Z,30.6671,-87.9365,0.99151444,0.17,1111122 
DISL,ioos:station:DISL:MHPA:1,2014-02-04T12:30:00Z,30.6671,-87.9365,0.99334323,0.17,1111122 
DISL,ioos:station:DISL:MHPA:1,2014-02-04T13:00:00Z,30.6671,-87.9365,1.024128,0.17,1111122 
DISL,ioos:station:DISL:MHPA:1,2014-02-04T13:30:00Z,30.6671,-87.9365,1.0265664,0.17,1111122 
DISL,ioos:station:DISL:MHPA:1,2014-02-04T14:00:00Z,30.6671,-87.9365,1.0320528,0.17,1111122 
DISL,ioos:station:DISL:MHPA:1,2014-02-04T14:30:00Z,30.6671,-87.9365,1.0323577,0.17,1111122 
DISL,ioos:station:DISL:MHPA:1,2014-02-04T15:00:00Z,30.6671,-87.9365,1.0274808,0.18,1111122 
DISL,ioos:station:DISL:MHPA:1,2014-02-04T15:30:00Z,30.6671,-87.9365,1.0296144,0.18,1111122 
DISL,ioos:station:DISL:MHPA:1,2014-02-04T16:00:00Z,30.6671,-87.9365,1.0482072,0.18,1111122 
DISL,ioos:station:DISL:MHPA:1,2014-02-04T16:30:00Z,30.6671,-87.9365,1.0695432,0.18,1111122 
DISL,ioos:station:DISL:MHPA:1,2014-02-04T17:00:00Z,30.6671,-87.9365,1.1030712,0.17,1111122 
DISL,ioos:station:DISL:MHPA:1,2014-02-04T17:30:00Z,30.6671,-87.9365,1.1152632,0.17,1111122 
DISL,ioos:station:DISL:MHPA:1,2014-02-04T18:00:00Z,30.6671,-87.9365,1.152144,0.17,1111122 
DISL,ioos:station:DISL:MHPA:1,2014-02-04T18:30:00Z,30.6671,-87.9365,1.1655551,0.17,1111122 
DISL,ioos:station:DISL:MHPA:1,2014-02-04T19:00:00Z,30.6671,-87.9365,1.1710416,0.16,1111122 
DISL,ioos:station:DISL:MHPA:1,2014-02-04T19:30:00Z,30.6671,-87.9365,1.208532,0.16,1111122 
DISL,ioos:station:DISL:MHPA:1,2014-02-04T20:00:00Z,30.6671,-87.9365,1.1960353,0.16,1111122 
DISL,ioos:station:DISL:MHPA:1,2014-02-04T20:30:00Z,30.6671,-87.9365,1.205484,0.16,1111122 
DISL,ioos:station:DISL:MHPA:1,2014-02-04T21:00:00Z,30.6671,-87.9365,1.2231624,0.17,1111122 
DISL,ioos:station:DISL:MHPA:1,2014-02-04T21:30:00Z,30.6671,-87.9365,1.2384025,0.17,1111122 
DISL,ioos:station:DISL:MHPA:1,2014-02-04T22:00:00Z,30.6671,-87.9365,1.2271248,0.17,1111122 
DISL,ioos:station:DISL:MHPA:1,2014-02-04T22:30:00Z,30.6671,-87.9365,1.2237719,0.17,1111122 
DISL,ioos:station:DISL:MHPA:1,2014-02-04T23:00:00Z,30.6671,-87.9365,1.2201144,0.17,1111122 
DISL,ioos:station:DISL:MHPA:1,2014-02-04T23:30:00Z,30.6671,-87.9365,1.2140185,0.17,1111122 
DISL,ioos:station:DISL:MHPA:1,2014-02-05T00:00:00Z,30.6671,-87.9365,1.2060937,0.17,1111122 
DISL,ioos:station:DISL:MHPA:1,2014-02-05T00:30:00Z,30.6671,-87.9365,1.1875008,0.17,1111122 
DISL,ioos:station:DISL:MHPA:1,2014-02-05T01:00:00Z,30.6671,-87.9365,1.1728704,0.17,1111122 
DISL,ioos:station:DISL:MHPA:1,2014-02-05T01:30:00Z,30.6671,-87.9365,1.1554968,0.16,1111122 
DISL,ioos:station:DISL:MHPA:1,2014-02-05T02:00:00Z,30.6671,-87.9365,1.1372088,0.16,1111122 
DISL,ioos:station:DISL:MHPA:1,2014-02-05T02:30:00Z,30.6671,-87.9365,1.1241024,0.16,1111122 
DISL,ioos:station:DISL:MHPA:1,2014-02-05T03:00:00Z,30.6671,-87.9365,1.1024617,0.16,1111122 
DISL,ioos:station:DISL:MHPA:1,2014-02-05T03:30:00Z,30.6671,-87.9365,1.08966,0.16,1111122 
DISL,ioos:station:DISL:MHPA:1,2014-02-05T04:00:00Z,30.6671,-87.9365,1.078992,0.16,1111122 
DISL,ioos:station:DISL:MHPA:1,2014-02-05T04:30:00Z,30.6671,-87.9365,1.0811256,0.16,1111122 
DISL,ioos:station:DISL:MHPA:1,2014-02-05T05:00:00Z,30.6671,-87.9365,1.0799065,0.16,1111122 
DISL,ioos:station:DISL:MHPA:1,2014-02-05T05:30:00Z,30.6671,-87.9365,1.0936224,0.16,1111122 
DISL,ioos:station:DISL:MHPA:1,2014-02-05T06:00:00Z,30.6671,-87.9365,1.1061192,0.16,1111122 
DISL,ioos:station:DISL:MHPA:1,2014-02-05T06:30:00Z,30.6671,-87.9365,1.1088624,0.16,1111122 
DISL,ioos:station:DISL:MHPA:1,2014-02-05T07:00:00Z,30.6671,-87.9365,1.1152632,0.16,1111122 
DISL,ioos:station:DISL:MHPA:1,2014-02-05T07:30:00Z,30.6671,-87.9365,1.0905744,0.15,1111122 
DISL,ioos:station:DISL:MHPA:1,2014-02-05T08:00:00Z,30.6671,-87.9365,1.0655808,0.15,1111122 
DISL,ioos:station:DISL:MHPA:1,2014-02-05T08:30:00Z,30.6671,-87.9365,1.0646664,0.15,1111122 
DISL,ioos:station:DISL:MHPA:1,2014-02-05T09:00:00Z,30.6671,-87.9365,1.0680192,0.15,1111122 
DISL,ioos:station:DISL:MHPA:1,2014-02-05T09:30:00Z,30.6671,-87.9365,1.0155936,0.15,1111122 
DISL,ioos:station:DISL:MHPA:1,2014-02-05T10:00:00Z,30.6671,-87.9365,0.9942576,0.15,1111122 
DISL,ioos:station:DISL:MHPA:1,2014-02-05T10:30:00Z,30.6671,-87.9365,0.9896856,0.15,1111122 
DISL,ioos:station:DISL:MHPA:1,2014-02-05T11:00:00Z,30.6671,-87.9365,0.96225363,0.16,1111122 
DISL,ioos:station:DISL:MHPA:1,2014-02-05T11:30:00Z,30.6671,-87.9365,0.9381744,0.16,1111122 
DISL,ioos:station:DISL:MHPA:1,2014-02-05T12:00:00Z,30.6671,-87.9365,0.90830404,0.17,1111122 
DISL,ioos:station:DISL:MHPA:1,2014-02-05T12:30:00Z,30.6671,-87.9365,0.871728,0.17,1111122 
DISL,ioos:station:DISL:MHPA:1,2014-02-05T13:00:00Z,30.6671,-87.9365,0.8317992,0.17,1111122 
DISL,ioos:station:DISL:MHPA:1,2014-02-05T13:30:00Z,30.6671,-87.9365,0.80467206,0.17,1111122 
DISL,ioos:station:DISL:MHPA:1,2014-02-05T14:00:00Z,30.6671,-87.9365,0.77967846,0.17,1111122 
DISL,ioos:station:DISL:MHPA:1,2014-02-05T14:30:00Z,30.6671,-87.9365,0.755904,0.17,1111122 
DISL,ioos:station:DISL:MHPA:1,2014-02-05T15:00:00Z,30.6671,-87.9365,0.73761606,0.17,1111122 
DISL,ioos:station:DISL:MHPA:1,2014-02-05T15:30:00Z,30.6671,-87.9365,0.71841365,0.17,1111122 
DISL,ioos:station:DISL:MHPA:1,2014-02-05T16:00:00Z,30.6671,-87.9365,0.7028688,0.17,1111122 
DISL,ioos:station:DISL:MHPA:1,2014-02-05T16:30:00Z,30.6671,-87.9365,0.6891528,0.17,1111122 
DISL,ioos:station:DISL:MHPA:1,2014-02-05T17:00:00Z,30.6671,-87.9365,0.67330325,0.17,1111122 
DISL,ioos:station:DISL:MHPA:1,2014-02-05T17:30:00Z,30.6671,-87.9365,0.6656832,0.17,1111122 
DISL,ioos:station:DISL:MHPA:1,2014-02-05T18:00:00Z,30.6671,-87.9365,0.66842645,0.17,1111122 
DISL,ioos:station:DISL:MHPA:1,2014-02-05T18:30:00Z,30.6671,-87.9365,0.6702552,0.17,1111122 
DISL,ioos:station:DISL:MHPA:1,2014-02-05T19:00:00Z,30.6671,-87.9365,0.66629285,0.17,1111122 
DISL,ioos:station:DISL:MHPA:1,2014-02-05T19:30:00Z,30.6671,-87.9365,0.67939925,0.17,1111122 
DISL,ioos:station:DISL:MHPA:1,2014-02-05T20:00:00Z,30.6671,-87.9365,0.7373112,0.17,1111122 
DISL,ioos:station:DISL:MHPA:1,2014-02-05T20:30:00Z,30.6671,-87.9365,0.8372856,0.17,1111122 
DISL,ioos:station:DISL:MHPA:1,2014-02-05T21:00:00Z,30.6671,-87.9365,0.8921496,0.17,1111122 
DISL,ioos:station:DISL:MHPA:1,2014-02-05T21:30:00Z,30.6671,-87.9365,0.9040368,0.18,1111122 
DISL,ioos:station:DISL:MHPA:1,2014-02-05T22:00:00Z,30.6671,-87.9365,0.9040368,0.18,1111122 
DISL,ioos:station:DISL:MHPA:1,2014-02-05T22:30:00Z,30.6671,-87.9365,0.9061704,0.19,1111122 
DISL,ioos:station:DISL:MHPA:1,2014-02-05T23:00:00Z,30.6671,-87.9365,0.8936736,0.18,1111122 
DISL,ioos:station:DISL:MHPA:1,2014-02-05T23:30:00Z,30.6671,-87.9365,0.8726424,0.19,1111122 
DISL,ioos:station:DISL:MHPA:1,2014-02-06T00:00:00Z,30.6671,-87.9365,0.85679287,0.18,1111122 
DISL,ioos:station:DISL:MHPA:1,2014-02-06T00:30:00Z,30.6671,-87.9365,0.8464296,0.18,1111122 
DISL,ioos:station:DISL:MHPA:1,2014-02-06T01:00:00Z,30.6671,-87.9365,0.82296,0.18,1111122 
DISL,ioos:station:DISL:MHPA:1,2014-02-06T01:30:00Z,30.6671,-87.9365,0.7900416,0.18,1111122 
DISL,ioos:station:DISL:MHPA:1,2014-02-06T02:00:00Z,30.6671,-87.9365,0.7598664,0.18,1111122 
DISL,ioos:station:DISL:MHPA:1,2014-02-06T02:30:00Z,30.6671,-87.9365,0.73243445,0.18,1111122 
DISL,ioos:station:DISL:MHPA:1,2014-02-06T03:00:00Z,30.6671,-87.9365,0.7046976,0.18,1111122 
DISL,ioos:station:DISL:MHPA:1,2014-02-06T03:30:00Z,30.6671,-87.9365,0.6739128,0.18,1111122 
DISL,ioos:station:DISL:MHPA:1,2014-02-06T04:00:00Z,30.6671,-87.9365,0.6516624,0.18,1111122 
DISL,ioos:station:DISL:MHPA:1,2014-02-06T04:30:00Z,30.6671,-87.9365,0.6330696,0.18,1111122 
DISL,ioos:station:DISL:MHPA:1,2014-02-06T05:00:00Z,30.6671,-87.9365,0.6147816,0.18,1111122 
DISL,ioos:station:DISL:MHPA:1,2014-02-06T05:30:00Z,30.6671,-87.9365,0.597408,0.18,1111122 
DISL,ioos:station:DISL:MHPA:1,2014-02-06T06:00:00Z,30.6671,-87.9365,0.582168,0.18,1111122 
DISL,ioos:station:DISL:MHPA:1,2014-02-06T06:30:00Z,30.6671,-87.9365,0.5663184,0.18,1111122 
DISL,ioos:station:DISL:MHPA:1,2014-02-06T07:00:00Z,30.6671,-87.9365,0.55595523,0.18,1111122 
DISL,ioos:station:DISL:MHPA:1,2014-02-06T07:30:00Z,30.6671,-87.9365,0.5480304,0.18,1111122 
DISL,ioos:station:DISL:MHPA:1,2014-02-06T08:00:00Z,30.6671,-87.9365,0.5407152,0.18,1111122 
DISL,ioos:station:DISL:MHPA:1,2014-02-06T08:30:00Z,30.6671,-87.9365,0.5340096,0.18,1111122 
DISL,ioos:station:DISL:MHPA:1,2014-02-06T09:00:00Z,30.6671,-87.9365,0.5269992,0.18,1111122 
DISL,ioos:station:DISL:MHPA:1,2014-02-06T09:30:00Z,30.6671,-87.9365,0.5187696,0.18,1111122 